Weather in Bel'tsovo

Russia / Primorsky Krai     44°49′39″N   133°34′09″E
temp.,
°C
wind,
m/s
gust,
m/s
humid.,
%
clouds,
%
prec.,
mm/h
press.,
hPa
HPBL,
m
13 april, tue
tue1301:00+8s3945100 0.0 1010374
04:00+7sse4963100 0.1 1007756
07:00+6sse3888100 1.5 1005843
10:00+1nw4996100 6.9 1005523
13:000nw5980100 1.7 10061041
16:00+2nw5958100 2.1 10071639
19:00+2nw49484 0.0 10071445
22:00−1wnw411536 0.0 1009927
14 april, wed
wed1401:00−2wnw410595 0.0 1011895
04:00−3w39560 0.0 1011986
07:00−3w39563 0.0 1012897
10:00+1w410355 0.0 10121976
13:00+4w5123296 0.0 10112990
16:00+5w51230100 0.0 10093293
19:00+3wsw245298 0.1 1010114
22:000ssw227095 0.1 101127
15 april, thu
thu1501:00−1s118415 0.0 101317
04:00−2ssw118421 0.0 101422
07:00−1sse117674 0.0 101532
10:00+5se234179 0.0 1014513
13:00+12wsw47265 0.0 10121833
16:00+14sw582947 0.0 10121652
19:00+11s4103589 0.0 1012632
22:00+8sse3941100 0.0 1013322
16 april, fri
fri1601:00+7sse3848100 0.0 1013261
04:00+5sse3135575 0.0 1012470
07:00+4ese2664100 0.0 1011141
10:00+9sse51262100 0.0 10101371
13:00+10sse61449100 0.0 10071615
16:00+12sse61548100 0.0 10042315
19:00+9se4963100 0.1 10031184
22:00+8sse4107156 0.8 10031021
17 april, sat
sat1701:00+6s2679100 0.3 1004406
04:00+3sse278928 0.4 1004166
07:00+2s12929 0.1 100539
10:00+8ssw2462100 0.6 1005808
13:00+9w2453100 0.9 10051295
16:00+10wsw3542100 1.8 10041885
19:00+8wnw126080 0.8 1006155
22:00+4nw117414 0.9 100810